GFSGBSN_sfc_30mbdewp_129.txt.gz
Dewpoint
57 57 56 55 54 52 52 53 52 51 51 51 51 51 51 50 50 50 50 50 52 52 55 52 52 49 44 28 15 43 44 42 36 33 30 30 29 28 27 28 27 26 25 26 27 27 26
56 56 55 54 53 51 51 52 50 50 50 50 51 50 48 48 49 49 50 50 51 52 51 50 50 47 41 8 34 43 42 40 38 32 31 29 29 31 29 28 27 27 27 27 27 28 28
54 54 53 52 53 51 50 51 49 50 49 50 50 48 47 48 49 49 50 50 51 52 49 49 49 43 41 16 41 42 42 39 39 39 35 35 35 29 29 28 29 28 27 28 28 27 24
54 52 52 52 53 50 49 48 51 49 49 50 50 47 47 48 49 50 51 52 52 51 49 48 47 43 23 40 43 40 42 39 42 40 39 40 40 32 30 30 29 28 27 25 25 24 24
53 53 52 52 51 50 49 48 48 49 50 50 48 47 48 48 49 51 50 51 52 51 51 48 43 40 14 34 29 36 40 40 42 42 40 40 35 31 30 29 28 27 24 24 22 24 24
53 52 51 51 50 49 49 48 48 48 49 49 46 46 47 48 49 50 49 50 49 48 47 45 42 32 23 21 35 40 41 43 41 40 40 39 32 28 27 29 14 21 23 22 21 22 23
51 51 50 50 50 48 47 47 48 47 47 47 45 46 47 47 48 49 47 43 32 31 42 22 25 24 29 35 36 37 42 41 39 37 34 34 33 31 31 28 25 24 24 23 23 23 23
50 50 50 49 49 47 46 46 47 44 46 47 45 46 46 46 47 48 45 39 42 42 28 37 38 37 38 38 26 30 36 36 34 32 30 29 31 35 32 31 27 27 24 23 23 24 24
48 48 49 49 49 48 48 47 46 45 47 46 45 45 46 46 47 44 43 40 46 43 32 27 38 38 37 37 28 26 30 33 32 30 30 29 27 29 30 27 27 25 24 23 21 24 26
48 48 48 48 48 48 48 48 48 46 45 46 45 45 45 45 39 43 39 43 44 43 14 5 28 35 40 38 29 36 32 27 29 26 28 28 29 26 25 24 25 23 24 24 23 25 23
47 47 47 47 48 48 48 48 47 47 46 46 46 45 45 44 42 40 43 45 45 31 -24 13 33 40 40 34 35 36 36 31 27 28 27 24 28 25 25 25 25 23 25 26 27 27 26
47 47 47 46 46 47 46 47 47 46 46 47 47 46 46 44 43 44 44 45 38 4 -31 -0 34 34 34 36 33 35 31 33 31 30 30 27 30 29 27 27 26 29 28 28 26 25 22
47 46 46 46 45 46 46 47 48 46 46 47 48 47 44 42 35 44 44 44 9 -15 -4 6 26 34 31 29 29 32 29 31 26 21 22 27 27 28 29 27 29 28 27 22 21 22 18
46 45 46 46 45 45 45 45 47 46 46 47 47 47 46 42 44 42 45 31 -17 -9 -3 11 12 30 27 28 27 28 31 28 30 26 25 21 17 25 30 27 24 28 27 20 17 18 16
46 47 46 45 45 45 45 45 45 45 46 46 46 45 43 43 45 41 40 24 -6 -0 12 19 7 -1 3 16 26 26 26 26 27 28 23 22 21 24 27 29 27 27 25 27 24 24 22
45 46 46 45 45 46 46 45 45 45 44 46 41 39 39 43 44 39 35 22 22 23 24 22 -9 12 3 19 15 18 20 23 24 27 28 26 22 23 24 25 23 27 28 24 26 19 16
43 44 45 46 44 44 45 45 44 44 44 43 39 34 35 44 41 34 27 26 24 27 25 23 20 18 23 22 26 24 23 24 28 27 26 26 25 24 27 22 22 25 25 25 26 25 21
42 43 44 45 45 45 44 44 43 43 45 41 37 29 36 44 30 29 26 26 27 25 26 23 26 25 22 25 22 22 26 27 30 29 20 23 24 21 23 27 28 23 24 25 23 21 26
40 42 43 43 43 45 45 44 44 43 44 40 33 32 39 42 24 25 25 26 26 26 23 22 24 25 24 21 16 22 20 22 23 25 26 31 28 18 21 26 30 31 29 25 25 25 22
39 41 42 41 42 43 44 45 44 44 44 40 33 26 32 37 30 24 22 22 24 28 25 25 28 29 27 26 25 23 28 29 32 31 34 34 29 26 20 19 23 24 25 23 24 22 21
38 39 40 40 40 42 43 44 43 43 43 39 34 29 29 25 27 28 25 24 19 19 27 28 25 22 27 26 27 28 30 29 28 27 30 32 25 26 26 26 26 24 23 25 22 22 22
37 38 38 39 40 41 41 43 43 44 44 38 29 30 32 28 28 28 28 25 23 25 24 26 24 26 26 22 23 19 23 23 24 26 28 30 27 25 24 25 25 25 25 25 25 24 22
36 37 38 39 39 38 38 42 44 44 44 36 37 35 30 30 26 27 24 23 24 26 26 26 27 27 27 28 30 31 30 30 29 28 28 29 28 26 21 25 25 22 24 24 25 26 26
36 37 37 37 37 39 38 42 43 45 44 36 36 35 27 24 26 25 25 25 25 24 25 26 26 28 27 31 34 34 35 33 33 33 33 30 29 28 23 24 17 19 23 24 25 26 26
35 36 36 36 36 37 38 40 41 41 44 37 37 33 29 24 26 25 25 25 28 30 29 28 27 27 30 30 26 22 22 28 28 31 31 31 28 25 22 20 20 20 23 22 20 17 25
35 35 35 36 37 37 39 39 40 42 42 39 37 36 31 25 23 24 25 26 25 25 25 25 29 31 31 28 25 20 15 22 23 26 31 32 30 27 24 19 15 17 24 24 21 15 26
34 34 35 35 36 38 39 39 40 41 42 39 37 37 35 28 28 24 21 22 25 25 25 29 31 31 31 29 24 20 18 22 16 17 23 28 28 24 24 21 21 20 26 23 13 14 27
36 35 35 35 36 37 39 38 39 41 40 41 37 37 34 29 28 29 29 29 30 27 23 26 24 27 31 26 23 22 24 24 24 25 25 25 24 23 24 20 18 27 25 18 22 26 27
36 38 36 36 36 37 39 38 38 39 40 41 35 37 36 32 28 29 28 30 31 34 32 32 30 32 33 29 29 28 26 25 25 21 24 24 26 24 24 23 25 27 25 26 26 26 26

GFSGBSN_sfc_30mbdewp_132.txt.gz
Dewpoint
58 58 57 56 55 53 53 53 52 51 52 51 51 51 50 50 49 49 49 49 50 52 54 52 51 51 40 21 11 41 44 41 37 35 30 26 28 29 23 24 25 23 23 25 26 26 26
56 57 56 55 54 52 52 52 50 51 50 51 50 49 47 47 48 49 50 50 50 52 52 51 49 49 35 13 33 40 40 40 37 33 32 31 29 30 26 24 24 27 26 26 26 26 26
55 56 55 55 54 52 52 51 49 50 50 51 49 47 46 48 49 49 50 51 50 52 51 49 49 43 34 17 33 37 38 34 37 38 31 34 34 26 28 26 29 28 25 24 24 25 24
55 55 54 53 53 51 50 49 50 50 49 51 49 47 46 47 49 50 51 52 53 52 51 49 47 42 23 32 35 34 34 33 35 32 37 38 37 31 30 31 28 25 25 15 23 23 24
53 54 54 53 53 51 49 48 49 50 49 50 48 46 46 47 48 50 49 51 50 50 51 49 42 37 17 30 29 38 38 38 40 38 35 38 35 31 30 26 21 25 9 20 20 22 21
53 54 53 53 53 51 50 49 48 48 49 50 47 45 46 47 48 49 48 49 49 48 47 45 42 34 22 15 34 36 40 41 37 34 34 35 31 26 26 23 5 10 17 19 17 18 20
52 53 53 53 52 51 50 49 48 48 49 48 46 45 46 46 48 48 45 38 31 33 41 24 19 24 21 31 32 35 40 40 36 32 23 32 24 19 14 21 24 23 21 19 18 20 20
51 51 51 52 51 49 48 48 49 47 47 47 45 44 46 46 47 48 44 29 36 41 16 22 27 27 30 33 21 31 38 34 32 20 30 29 22 22 29 31 28 26 23 19 16 20 22
50 50 50 51 50 50 48 48 48 46 47 47 44 44 45 46 46 45 41 36 45 45 27 16 29 29 29 31 14 8 32 31 27 21 24 18 18 27 31 28 26 22 20 16 18 19 21
49 49 49 50 50 50 49 49 48 47 48 46 45 43 44 44 40 42 40 44 45 46 17 9 24 32 38 32 24 29 25 18 23 18 19 21 20 25 24 20 19 17 20 21 20 20 16
48 49 49 49 48 48 48 48 48 47 47 47 45 45 45 44 40 39 44 46 45 40 -2 12 30 37 37 30 34 35 31 20 11 17 22 14 24 24 23 21 22 19 25 24 25 24 22
48 48 48 48 48 48 47 48 48 47 47 47 46 45 47 44 43 44 44 46 44 18 -9 10 32 34 33 32 32 31 27 31 28 21 24 17 28 26 21 24 25 28 26 25 25 22 14
48 48 48 48 47 47 47 46 48 47 47 47 47 46 44 42 34 44 44 45 18 -0 -6 6 22 31 29 24 30 31 25 26 20 19 18 20 21 23 26 24 27 26 24 14 12 16 10
47 48 48 48 48 47 47 46 46 47 46 47 48 47 45 41 43 43 45 33 8 -13 -13 10 15 28 21 26 25 28 27 23 26 23 19 12 11 24 28 24 19 24 21 16 9 6 9
46 47 47 47 47 47 46 46 45 46 46 47 47 45 43 45 45 42 40 23 -9 -15 1 5 6 -4 5 22 22 24 25 22 22 26 19 18 16 23 26 28 25 25 23 22 19 17 17
46 46 47 47 46 47 47 45 45 45 45 47 41 39 38 45 46 39 34 16 8 15 20 15 -7 1 -7 -3 11 15 15 20 24 26 28 22 10 9 20 26 26 25 24 20 22 15 10
45 46 46 46 46 46 46 45 45 45 46 43 38 34 39 45 42 35 26 18 15 24 24 14 7 6 8 10 12 8 4 22 26 24 23 23 22 12 25 20 14 22 23 24 22 20 16
43 44 44 45 46 46 45 46 45 45 46 41 38 31 40 43 31 29 25 21 23 21 24 21 22 18 9 11 13 12 13 21 28 21 13 15 14 13 11 19 27 24 22 22 22 18 26
41 42 42 42 43 45 45 44 46 46 45 41 35 33 40 42 25 26 20 21 23 23 18 19 16 18 13 12 11 10 10 17 25 21 20 23 12 10 2 13 27 26 25 26 30 32 25
38 39 41 43 42 43 44 46 45 46 46 41 34 28 33 36 30 23 19 17 19 24 22 25 24 26 19 16 16 12 19 29 31 28 32 32 24 19 8 6 17 23 23 24 26 24 21
36 38 40 40 40 42 43 43 46 46 46 39 35 31 31 27 29 27 22 18 16 17 22 21 19 21 19 17 16 17 18 19 23 23 24 26 21 20 19 19 20 21 20 19 19 22 22
36 37 38 40 41 41 42 44 44 46 45 39 31 31 33 25 27 27 24 21 16 16 16 17 18 18 19 17 15 13 17 18 18 19 24 28 21 22 19 19 19 18 19 19 18 20 21
36 36 37 39 39 40 40 41 42 44 43 33 37 36 29 26 27 27 25 23 19 20 19 19 19 21 22 20 24 26 27 26 25 24 24 23 23 21 20 18 23 19 18 17 18 17 20
35 36 37 37 39 39 40 41 41 42 43 37 37 34 29 25 27 26 23 23 21 21 20 22 24 23 23 28 27 28 26 25 24 24 24 22 21 23 20 19 17 13 20 22 22 22 23
35 35 36 36 38 38 39 40 41 42 45 39 40 36 30 25 24 24 24 22 23 23 24 22 23 23 25 26 22 20 18 18 18 20 21 23 23 21 19 13 13 13 20 23 22 18 21
34 35 35 36 37 38 38 39 40 41 44 40 39 40 33 28 23 22 23 23 23 23 23 25 26 28 29 26 22 17 10 8 9 20 28 23 21 22 16 12 9 17 24 25 23 18 21
34 35 35 36 36 37 38 39 38 39 40 36 35 40 36 31 27 24 23 23 24 23 21 21 27 28 31 27 23 16 12 11 9 10 17 24 28 24 22 19 15 16 25 23 17 19 27
34 35 35 36 36 37 38 39 38 39 40 38 35 39 36 33 29 26 25 23 23 22 17 21 24 27 29 25 24 19 17 13 13 14 14 13 19 20 25 23 20 27 24 18 26 28 29
35 35 36 35 36 37 38 39 37 38 41 39 33 39 40 34 31 30 28 28 25 26 24 27 22 30 31 28 24 25 25 24 18 15 20 22 23 21 23 20 30 28 31 30 28 28 29

GFSGBSN_sfc_30mbdewp_135.txt.gz
Dewpoint
62 61 60 60 58 57 56 54 53 52 52 52 51 51 50 49 49 49 49 49 49 49 52 51 51 50 42 21 14 39 42 43 35 30 25 21 20 22 17 18 19 16 13 20 20 22 22
59 58 57 56 55 54 54 53 51 51 51 51 50 48 47 47 48 49 49 49 49 49 52 51 49 49 35 17 25 32 32 31 29 27 24 24 23 24 20 20 16 21 23 20 20 21 21
56 57 56 55 54 53 53 51 51 51 51 51 49 46 46 47 48 49 50 51 52 51 52 50 49 42 29 21 26 26 29 25 32 31 25 28 27 22 22 19 23 23 20 17 19 20 21
55 56 55 55 54 53 52 51 50 50 50 51 48 46 46 47 48 49 50 50 52 52 52 50 49 38 25 23 25 25 25 24 26 25 25 34 33 28 26 27 25 21 19 15 12 21 21
54 55 54 53 53 52 50 50 50 50 49 51 48 46 45 46 48 49 49 49 50 50 51 50 43 36 18 27 24 36 36 33 30 29 32 35 33 28 28 22 19 20 13 12 18 21 18
53 54 54 53 53 52 51 49 49 50 51 51 48 46 45 46 47 48 48 48 48 48 47 41 37 31 25 11 29 34 38 37 34 32 32 31 28 24 21 17 13 9 15 15 15 16 19
53 53 53 53 53 53 51 50 49 49 49 50 47 45 45 45 48 48 44 40 35 37 36 22 20 23 15 26 28 28 36 37 32 28 23 30 24 17 13 15 18 19 17 11 10 14 16
53 53 53 53 53 52 51 51 50 48 49 50 46 45 45 45 47 48 44 24 29 36 16 13 15 16 14 22 17 16 35 30 28 23 18 24 24 18 15 24 24 19 16 16 16 16 16
52 52 52 52 53 52 51 50 50 48 49 48 46 44 44 45 46 44 34 28 38 39 24 12 14 17 17 23 16 2 26 25 22 23 18 18 18 21 22 22 22 18 16 16 16 15 16
51 51 51 50 51 51 51 50 50 48 48 47 45 44 44 44 39 35 31 39 40 43 22 12 17 25 29 23 17 14 13 21 20 19 17 14 17 17 20 18 15 12 15 17 18 15 10
49 50 50 50 50 50 50 50 49 48 48 47 45 44 44 43 39 31 42 42 42 42 6 9 22 34 34 24 31 33 30 15 10 16 14 13 16 17 16 16 17 16 21 20 17 17 17
49 49 49 49 49 49 50 49 49 48 49 48 46 45 45 39 38 43 43 45 43 23 5 13 28 29 30 28 29 30 25 26 16 12 14 17 23 22 18 19 19 19 22 21 22 20 16
48 48 47 48 48 49 49 49 49 48 48 48 46 46 44 37 30 43 45 43 21 14 -2 6 17 26 26 24 28 27 25 23 18 17 16 17 15 18 20 19 22 22 19 12 9 10 13
47 47 47 47 47 48 48 48 48 49 48 47 47 47 43 37 40 42 43 32 18 4 3 10 13 20 17 20 24 26 21 20 18 17 13 11 12 15 19 18 13 20 18 14 10 8 7
45 47 47 48 48 47 47 47 47 48 47 48 47 42 41 41 43 42 39 22 -4 4 -4 -2 11 14 13 18 20 22 21 16 17 19 12 9 10 19 20 18 17 12 16 16 14 17 14
42 46 47 47 48 47 47 47 47 48 47 48 42 42 38 43 43 39 34 22 6 4 10 8 -3 -7 -8 0 3 10 10 13 17 23 21 15 13 18 16 21 20 18 13 14 21 19 10
43 42 46 46 46 47 47 47 46 46 47 46 41 37 39 43 38 35 27 18 16 8 15 11 5 2 3 2 2 6 5 18 23 20 19 17 16 12 7 11 12 9 17 16 15 12 12
43 43 40 46 46 47 47 47 47 45 46 44 41 32 42 41 29 29 27 18 15 12 19 15 15 11 4 6 7 6 4 17 26 23 15 15 15 8 6 7 15 21 22 17 18 19 18
41 43 42 43 46 47 47 47 47 47 46 42 36 35 41 38 27 26 20 21 19 18 15 14 9 8 7 5 4 7 6 14 21 21 19 19 17 8 4 4 6 8 15 16 13 16 20
41 40 43 42 45 45 45 47 48 47 45 41 35 29 35 38 30 22 18 15 15 19 18 15 14 14 16 10 10 7 8 17 28 22 27 27 13 9 3 -0 6 13 20 22 24 26 26
39 39 39 39 42 43 44 45 46 48 45 40 36 32 32 28 30 25 21 16 13 13 19 16 16 16 14 10 11 10 11 11 27 26 23 24 20 16 14 12 13 14 12 11 11 13 14
37 38 37 38 38 39 42 44 45 46 46 38 31 33 31 26 29 27 23 19 16 14 14 16 15 14 14 12 11 10 12 12 12 16 17 17 17 18 13 10 10 10 9 9 10 11 11
37 37 37 37 38 39 40 41 43 44 46 34 36 39 31 26 27 26 25 21 18 17 15 14 14 14 13 14 18 22 23 21 19 17 18 20 20 19 16 16 15 12 13 12 11 11 11
34 36 37 37 38 40 40 41 41 43 43 36 37 38 35 28 28 26 22 21 19 19 19 16 17 16 17 28 28 25 23 21 20 20 20 19 19 19 17 16 14 12 11 12 17 16 16
33 34 35 36 37 38 39 40 41 41 43 38 39 37 34 29 25 24 23 20 20 19 20 16 24 24 30 26 21 19 17 18 17 18 17 17 18 19 17 15 12 11 12 17 24 17 19
32 33 35 35 37 38 39 40 40 41 41 42 41 41 36 32 27 23 21 22 23 22 22 20 21 23 24 23 19 15 10 7 6 8 15 16 18 19 18 13 11 16 13 13 23 20 20
31 32 34 35 36 37 38 39 39 41 41 38 36 41 39 33 28 25 22 25 21 22 22 23 23 24 26 23 20 17 13 10 7 6 9 23 24 21 21 19 16 15 14 21 17 16 26
30 32 34 35 36 36 37 39 39 39 40 39 37 40 35 33 29 28 28 26 23 22 22 22 22 24 25 22 21 19 19 15 12 12 10 9 11 19 21 20 18 21 25 21 27 29 28
31 32 34 35 36 37 37 38 39 39 38 39 35 40 40 36 35 31 28 28 24 23 21 24 21 21 24 22 18 18 19 23 19 16 15 15 17 19 17 18 29 32 29 31 30 28 29

GFSGBSN_sfc_30mbdewp_141.txt.gz
Dewpoint
61 61 61 62 62 61 61 61 61 59 57 55 54 52 51 49 48 48 47 48 48 49 49 50 52 50 45 34 27 36 39 39 41 34 28 24 19 16 18 21 20 16 16 17 16 17 19
57 61 61 61 61 61 61 61 58 56 54 53 52 50 47 46 47 47 48 49 49 51 52 51 52 50 41 20 22 36 35 27 28 25 27 25 22 25 22 20 15 18 17 18 20 21 18
56 56 56 60 61 61 60 56 55 53 53 52 50 47 46 46 46 47 48 48 49 50 52 52 52 46 36 22 23 25 23 25 23 23 26 25 29 29 28 22 24 26 22 21 19 18 17
56 55 54 54 54 53 53 53 53 53 52 51 48 46 45 45 45 46 47 47 48 49 51 51 52 46 30 29 25 20 18 17 21 21 23 21 27 31 29 27 25 22 23 18 16 17 17
55 55 54 53 53 53 52 52 52 52 52 51 49 46 45 44 45 46 47 47 47 48 50 50 45 45 33 26 22 21 26 27 23 22 22 21 31 29 29 25 22 20 17 17 18 19 21
55 55 54 53 53 52 52 52 51 51 51 51 50 46 45 45 45 46 47 45 44 46 43 45 43 29 28 20 22 30 35 35 30 26 24 29 29 27 26 24 19 17 17 18 16 18 20
54 54 54 53 53 53 52 52 52 51 51 51 51 48 46 44 43 45 45 39 36 41 39 34 33 25 24 23 22 25 28 34 34 30 27 29 25 22 23 23 22 21 17 18 18 19 17
54 54 54 54 53 53 52 52 51 51 50 50 50 49 47 45 44 46 44 36 33 35 31 32 31 32 31 27 15 19 22 32 31 29 26 24 25 26 25 23 21 19 20 21 21 17 15
53 53 53 53 53 54 53 52 52 51 50 50 49 49 46 43 44 39 33 37 36 39 31 24 21 16 22 20 17 12 19 31 29 29 26 23 22 25 23 22 19 18 19 21 20 19 17
53 53 53 53 52 53 53 53 52 51 51 50 51 49 45 43 35 37 37 40 40 41 25 23 16 16 15 11 12 12 15 22 25 24 23 22 24 22 20 19 18 16 19 18 17 17 15
50 51 52 52 53 53 53 53 53 52 51 50 50 47 44 42 38 39 43 44 42 43 13 19 18 19 17 11 18 16 13 15 13 19 20 19 17 17 15 16 18 17 19 19 19 19 17
49 50 50 51 51 51 51 53 52 51 51 50 49 46 44 40 40 36 44 46 44 33 17 20 28 22 18 19 19 29 18 18 18 11 13 16 18 16 16 19 18 17 18 17 18 17 15
47 48 50 50 51 51 50 50 51 51 50 49 48 46 44 40 38 45 46 45 26 21 18 19 25 23 26 26 23 27 27 23 11 9 8 9 10 11 16 18 19 18 16 13 11 15 15
44 46 47 48 50 50 50 50 50 51 50 49 48 47 45 42 42 45 45 38 21 17 17 17 14 20 20 24 23 22 24 21 19 15 15 7 10 9 12 19 18 18 16 15 13 12 15
43 44 45 47 48 48 49 49 50 50 50 49 49 46 43 42 42 44 41 26 16 16 14 10 11 11 17 22 22 22 25 22 22 22 19 16 13 14 15 17 17 14 18 20 18 20 19
40 41 42 45 45 47 47 48 48 49 50 50 46 43 40 43 43 42 36 19 18 16 15 14 11 7 8 8 16 19 24 23 25 27 25 24 18 18 17 18 18 16 19 15 20 13 16
40 40 40 42 45 44 47 47 47 48 50 50 43 36 40 45 43 38 26 21 19 20 18 14 13 13 13 11 11 13 15 25 24 24 23 22 19 18 23 22 21 19 19 18 19 20 16
39 39 40 43 44 45 44 47 47 47 48 47 41 31 40 46 33 32 24 23 23 19 17 18 16 15 13 12 13 12 15 24 23 23 22 23 18 15 15 15 22 22 14 16 18 21 25
38 39 40 41 41 44 44 43 48 47 48 45 35 36 45 41 27 26 23 20 22 21 20 15 16 15 16 14 10 11 16 20 20 24 26 25 18 11 12 10 9 7 13 18 16 24 20
37 39 39 39 41 42 43 43 45 47 47 46 34 30 36 39 34 28 24 20 17 19 20 19 17 17 16 17 13 11 10 22 23 21 25 23 21 17 13 12 12 9 6 7 9 12 13
36 38 39 39 40 41 42 43 43 47 47 45 34 31 34 29 31 31 29 25 22 16 18 18 18 17 16 12 12 12 13 12 21 23 24 20 15 14 15 12 10 9 9 11 11 12 12
35 36 38 40 39 40 41 41 42 43 47 43 32 31 36 30 33 31 30 27 25 22 20 18 18 17 16 15 15 14 13 11 12 20 23 25 18 21 17 17 15 13 13 12 11 10 8
35 35 37 38 39 40 40 40 41 43 46 40 33 37 37 32 32 30 28 26 24 24 21 19 18 16 15 16 22 25 26 25 24 22 25 28 28 25 19 20 21 16 16 16 17 17 16
35 35 35 38 37 38 39 41 40 42 43 35 33 38 31 30 31 29 26 28 25 23 21 21 25 22 23 26 26 25 24 24 24 24 24 24 26 27 24 20 15 15 20 20 18 15 15
34 35 35 34 37 37 37 38 41 42 43 37 37 35 32 30 32 29 29 26 26 25 23 22 27 30 28 26 24 21 20 20 20 20 19 20 20 17 16 15 16 16 17 16 15 14 17
34 34 34 33 34 37 36 36 41 40 41 38 37 39 33 31 31 30 30 29 25 24 26 28 31 29 28 26 22 17 12 13 9 10 12 13 16 17 15 14 11 10 17 18 20 15 22
33 34 34 33 33 35 36 37 39 39 41 39 38 38 36 31 33 35 33 31 33 27 25 28 30 28 28 25 21 18 15 14 10 8 9 11 15 14 15 15 16 17 19 19 15 14 29
32 34 34 33 34 34 36 35 37 38 39 40 38 40 37 33 33 35 35 34 34 33 27 31 28 30 26 22 19 18 17 16 15 15 15 15 16 15 18 20 18 26 24 21 27 33 31
32 34 34 34 34 35 36 37 34 35 36 39 36 41 40 34 34 37 38 38 37 35 34 34 27 29 29 24 22 20 18 20 20 19 20 17 21 20 20 20 24 30 28 30 32 32 32